[Iaude] MPEC V72: 2023 VZ1 [a=1.17,e=0.15,i=1.6,H=27.9]
    mpec at marsden.cfa.harvard.edu 
    mpec at marsden.cfa.harvard.edu
       
    Mon Nov  6 10:45:17 EST 2023
    
    
  
M.P.E.C. 2023-V72                              Issued 2023 November 6, 15:42 UT
     The Minor Planet Electronic Circulars contain information on unusual
         minor planets, routine data on comets and natural satellites,
         and occasional editorial announcements.  They are published
    on behalf of Division F of the International Astronomical Union by the
          Minor Planet Center, Smithsonian Astrophysical Observatory,
                          Cambridge, MA 02138, U.S.A.
			  
             Prepared using the Tamkin Foundation Computer Network
                              MPC at CFA.HARVARD.EDU
            URL https://www.minorplanetcenter.net/    ISSN 1523-6714
                                    2023 VZ1                                    
Observations:
     K23V01Z*1C2023 11 04.50692205 59 04.182+14 13 54.73         19.68GVEV072G96
     K23V01Z 1C2023 11 04.51207705 59 05.010+14 15 16.16         19.55GVEV072G96
     K23V01Z 1C2023 11 04.51727805 59 05.852+14 16 38.24         19.73GVEV072G96
     K23V01Z 1C2023 11 04.52245105 59 06.724+14 17 59.64         19.63GVEV072G96
     K23V01Z 1C2023 11 04.52959205 59 07.976+14 19 52.00         19.69GVEV072G96
     K23V01Z 1C2023 11 04.53014605 59 08.052+14 20 00.74         19.48GVEV072G96
     K23V01Z 1C2023 11 04.53069705 59 08.156+14 20 09.31         20.04GVEV072G96
     K23V01Z KC2023 11 05.38794306 05 21.10 +17 53 41.2          19.0 GXEV072858
     K23V01Z KC2023 11 05.40194206 05 22.54 +17 56 56.9          20.5 GXEV072858
     K23V01Z KC2023 11 05.41565706 05 23.82 +18 00 04.8          19.8 GXEV072858
     K23V01Z KC2023 11 06.25265806 10 40.45 +20 54 29.4                XEV072858
     K23V01Z KC2023 11 06.28687706 10 46.47 +21 01 42.6          19.9 GXEV072858
     K23V01Z KC2023 11 06.29376306 10 47.49 +21 03 09.1          19.9 GXEV072858
     K23V01Z KC2023 11 06.37225806 10 55.73 +21 19 05.6          19.7 GXEV072858
     K23V01Z KC2023 11 06.38258906 10 56.47 +21 21 07.5          19.8 GXEV072858
Observer details:
858 Tebbutt Observatory, Edgewood.  Observer F. B. Zoltowski.  0.16-m f/7
    Refractor + CCD, 0.51-m f/8.1 Schmidt-Cassegrain + CCD.
G96 Mt. Lemmon Survey.  Observer J. B. Fazekas.  Measurers E. C. Beshore, D.
    Fay, J. B. Fazekas, D. C. Fuls, A. R. Gibbs, A. D. Grauer, H. Groeller, J.
    K. Hogan, R. A. Kowalski, S. M. Larson, G. J. Leonard, D. Rankin, R. L.
    Seaman, F. C. Shelly, K. W. Wierzchos.  1.5-m reflector + 10K CCD.
Orbital elements:
2023 VZ1                                                 Earth MOID = 0.0068 AU
Epoch 2023 Sept. 13.0 TT = JDT 2460200.5                Veres                   
M 327.93771              (2000.0)            P               Q                  
n   0.77499939     Peri.  341.44272     +0.86536808     -0.50068082             
a   1.1738208      Node    48.62144     +0.46331468     +0.78307413             
e   0.1512597      Incl.    1.63223     +0.19099109     +0.36893580             
P   1.27           H   27.90          G   0.15           U   8                  
Residuals in seconds of arc
231104 G96  0.1+  0.3+    231104 G96  0.1-  0.1+    231106 858  0.4-  0.3+
231104 G96  0.2+  0.0     231104 G96  0.0   0.0     231106 858  0.2-  0.2-
231104 G96  0.0   0.1-    231105 858  0.1-  0.1+    231106 858  0.2-  0.0
231104 G96  0.1+  0.2-    231105 858  0.4+  0.7+    231106 858  0.3+  0.2-
231104 G96  0.2+  0.0     231105 858  0.3-  0.8-    231106 858  0.4+  0.0
Ephemeris:
2023 VZ1                 a,e,i = 1.17, 0.15, 2                   q = 0.9963
Date    TT    R. A. (2000) Decl.     Delta      r    Elong.  Phase     V
2023 10 07    19 56 19.7 -55 14 51   0.03077 1.0030    95.3    83.0    23.3
...
2023 10 22    22 34 34.9 -68 06 12   0.01244 0.9964    94.3    85.0    21.3
...
2023 10 30    04 49 04.8 -28 45 46   0.0069300.9971   123.6    56.1    19.1
...
2023 11 05    06 02 44.3 +16 25 24   0.01139 0.9992   130.9    48.6    20.0
2023 11 06    06 08 42.8 +20 08 50   0.01252 0.9997   130.8    48.6    20.2
2023 11 07    06 13 46.9 +23 14 08   0.01369 1.0002   130.8    48.6    20.4
...
2023 11 13    06 31 48.9 +34 07 09   0.02124 1.0042   132.3    46.8    21.3
...
2023 11 21    06 38 36.9 +40 06 30   0.03197 1.0118   137.5    41.3    22.1
...
2023 12 06    06 30 44.9 +43 38 05   0.05374 1.0323   149.9    28.6    22.9
M. P. C. Staff               (C) Copyright 2023 MPC           M.P.E.C. 2023-V72
    
    
More information about the Iaude
mailing list